Time,TemperatureF,DewpointF,PressureIn,WindDirection,WindDirectionDegrees,WindSpeedMPH,WindSpeedGustMPH,Humidity,HourlyPrecipIn,Conditions,Clouds,dailyrainin,SoftwareType,DateUTC
2013-05-05 00:01:00,44.0,36.9,30.30,NE,46,2.0,2.0,76,0.00,,,0.00,Wunderground v.1.15,2013-05-05 04:01:00,
2013-05-05 00:02:00,43.9,36.8,30.30,NE,45,0.0,2.0,76,0.00,,,0.00,Wunderground v.1.15,2013-05-05 04:02:00,
2013-05-05 00:03:00,43.9,36.8,30.30,NE,45,1.0,2.0,76,0.00,,,0.00,Wunderground v.1.15,2013-05-05 04:03:00,
2013-05-05 00:08:00,43.8,36.7,30.30,NE,46,0.0,2.0,76,0.00,,,0.00,Wunderground v.1.15,2013-05-05 04:08:00,
2013-05-05 00:11:00,43.8,36.7,30.30,NE,46,3.0,4.0,76,0.00,,,0.00,Wunderground v.1.15,2013-05-05 04:11:00,
2013-05-05 00:13:00,43.7,36.6,30.30,NNE,33,2.0,4.0,76,0.00,,,0.00,Wunderground v.1.15,2013-05-05 04:13:00,
2013-05-05 00:18:00,43.6,36.5,30.30,NNE,30,3.0,4.0,76,0.00,,,0.00,Wunderground v.1.15,2013-05-05 04:18:00,
2013-05-05 00:23:00,43.5,36.8,30.30,NNE,21,0.0,5.0,77,0.00,,,0.00,Wunderground v.1.15,2013-05-05 04:23:00,
2013-05-05 00:29:00,43.4,36.7,30.30,NNE,21,1.0,5.0,77,0.00,,,0.00,Wunderground v.1.15,2013-05-05 04:29:00,
2013-05-05 00:34:00,43.4,36.7,30.30,NNE,21,3.0,3.0,77,0.00,,,0.00,Wunderground v.1.15,2013-05-05 04:34:00,
2013-05-05 00:39:00,43.4,36.7,30.30,NNE,21,0.0,3.0,77,0.00,,,0.00,Wunderground v.1.15,2013-05-05 04:39:00,
2013-05-05 00:44:00,43.2,36.5,30.30,NNE,21,0.0,1.0,77,0.00,,,0.00,Wunderground v.1.15,2013-05-05 04:44:00,
2013-05-05 00:49:00,43.1,36.4,30.30,NNE,24,2.0,3.0,77,0.00,,,0.00,Wunderground v.1.15,2013-05-05 04:49:00,
2013-05-05 00:55:00,42.8,36.1,30.30,NNE,24,0.0,2.0,77,0.00,,,0.00,Wunderground v.1.15,2013-05-05 04:55:00,
2013-05-05 01:00:00,42.6,35.9,30.30,NNE,19,0.0,1.0,77,0.00,,,0.00,Wunderground v.1.15,2013-05-05 05:00:00,
2013-05-05 01:05:00,42.4,36.0,30.30,NNE,19,0.0,1.0,78,0.00,,,0.00,Wunderground v.1.15,2013-05-05 05:05:00,
2013-05-05 01:11:00,42.4,36.0,30.29,NNE,19,0.0,0.0,78,0.00,,,0.00,Wunderground v.1.15,2013-05-05 05:11:00,
2013-05-05 01:16:00,42.4,36.0,30.29,NNE,22,0.0,1.0,78,0.00,,,0.00,Wunderground v.1.15,2013-05-05 05:16:00,
2013-05-05 01:21:00,42.4,36.0,30.29,NNE,22,2.0,2.0,78,0.00,,,0.00,Wunderground v.1.15,2013-05-05 05:21:00,
2013-05-05 01:26:00,42.3,35.9,30.30,NNE,22,0.0,2.0,78,0.00,,,0.00,Wunderground v.1.15,2013-05-05 05:26:00,
2013-05-05 01:31:00,42.2,35.8,30.30,NNE,22,0.0,0.0,78,0.00,,,0.00,Wunderground v.1.15,2013-05-05 05:31:00,
2013-05-05 01:36:00,42.1,35.7,30.29,NNE,21,1.0,2.0,78,0.00,,,0.00,Wunderground v.1.15,2013-05-05 05:36:00,
2013-05-05 01:41:00,41.9,35.5,30.29,NNE,22,1.0,1.0,78,0.00,,,0.00,Wunderground v.1.15,2013-05-05 05:41:00,
2013-05-05 01:47:00,41.8,35.4,30.29,NNE,22,2.0,2.0,78,0.00,,,0.00,Wunderground v.1.15,2013-05-05 05:47:00,
2013-05-05 01:52:00,41.7,35.7,30.29,North,360,0.0,1.0,79,0.00,,,0.00,Wunderground v.1.15,2013-05-05 05:52:00,
2013-05-05 01:57:00,41.6,35.6,30.29,North,360,1.0,2.0,79,0.00,,,0.00,Wunderground v.1.15,2013-05-05 05:57:00,
2013-05-05 02:02:00,41.5,35.5,30.29,North,360,3.0,3.0,79,0.00,,,0.00,Wunderground v.1.15,2013-05-05 06:02:00,
2013-05-05 02:07:00,41.5,35.5,30.29,North,360,1.0,3.0,79,0.00,,,0.00,Wunderground v.1.15,2013-05-05 06:07:00,
2013-05-05 02:12:00,41.4,35.4,30.29,North,360,0.0,2.0,79,0.00,,,0.00,Wunderground v.1.15,2013-05-05 06:12:00,
2013-05-05 02:17:00,41.3,35.3,30.29,North,360,0.0,3.0,79,0.00,,,0.00,Wunderground v.1.15,2013-05-05 06:17:00,
2013-05-05 02:22:00,41.1,35.1,30.29,North,355,3.0,3.0,79,0.00,,,0.00,Wunderground v.1.15,2013-05-05 06:22:00,
2013-05-05 02:27:00,41.0,35.0,30.29,North,355,2.0,3.0,79,0.00,,,0.00,Wunderground v.1.15,2013-05-05 06:27:00,
2013-05-05 02:32:00,40.9,34.9,30.29,NNW,344,3.0,3.0,79,0.00,,,0.00,Wunderground v.1.15,2013-05-05 06:32:00,
2013-05-05 02:37:00,40.8,34.8,30.29,NNW,344,1.0,3.0,79,0.00,,,0.00,Wunderground v.1.15,2013-05-05 06:37:00,
2013-05-05 02:42:00,40.7,35.0,30.29,NNW,344,0.0,2.0,80,0.00,,,0.00,Wunderground v.1.15,2013-05-05 06:42:00,
2013-05-05 02:47:00,40.7,35.0,30.28,NNW,344,0.0,2.0,80,0.00,,,0.00,Wunderground v.1.15,2013-05-05 06:47:00,
2013-05-05 02:52:00,40.7,35.0,30.28,NNW,344,0.0,0.0,80,0.00,,,0.00,Wunderground v.1.15,2013-05-05 06:52:00,
2013-05-05 02:57:00,40.7,35.0,30.28,NNW,344,0.0,3.0,80,0.00,,,0.00,Wunderground v.1.15,2013-05-05 06:57:00,
2013-05-05 03:02:00,40.7,35.0,30.28,NNW,344,0.0,1.0,80,0.00,,,0.00,Wunderground v.1.15,2013-05-05 07:02:00,
2013-05-05 03:07:00,40.7,35.0,30.28,NNW,344,1.0,2.0,80,0.00,,,0.00,Wunderground v.1.15,2013-05-05 07:07:00,
2013-05-05 03:12:00,40.7,35.0,30.28,NNW,344,1.0,3.0,80,0.00,,,0.00,Wunderground v.1.15,2013-05-05 07:12:00,
2013-05-05 03:17:00,40.6,34.9,30.28,NNW,344,3.0,3.0,80,0.00,,,0.00,Wunderground v.1.15,2013-05-05 07:17:00,
2013-05-05 03:22:00,40.5,34.8,30.28,NNW,344,0.0,3.0,80,0.00,,,0.00,Wunderground v.1.15,2013-05-05 07:22:00,
2013-05-05 03:27:00,40.5,34.8,30.28,NNW,338,0.0,4.0,80,0.00,,,0.00,Wunderground v.1.15,2013-05-05 07:27:00,
2013-05-05 03:32:00,40.4,34.7,30.28,NNW,338,0.0,2.0,80,0.00,,,0.00,Wunderground v.1.15,2013-05-05 07:32:00,
2013-05-05 03:37:00,40.4,34.7,30.28,North,355,1.0,5.0,80,0.00,,,0.00,Wunderground v.1.15,2013-05-05 07:37:00,
2013-05-05 03:42:00,40.3,34.6,30.28,North,349,0.0,4.0,80,0.00,,,0.00,Wunderground v.1.15,2013-05-05 07:42:00,
2013-05-05 03:47:00,40.2,34.5,30.28,North,349,2.0,4.0,80,0.00,,,0.00,Wunderground v.1.15,2013-05-05 07:47:00,
2013-05-05 03:52:00,40.1,34.4,30.28,North,355,6.0,6.0,80,0.00,,,0.00,Wunderground v.1.15,2013-05-05 07:52:00,
2013-05-05 03:57:00,40.1,34.4,30.28,NNW,336,4.0,6.0,80,0.00,,,0.00,Wunderground v.1.15,2013-05-05 07:57:00,
2013-05-05 04:02:00,40.0,34.3,30.28,North,350,0.0,4.0,80,0.00,,,0.00,Wunderground v.1.15,2013-05-05 08:02:00,
2013-05-05 04:07:00,40.0,34.3,30.28,North,349,4.0,4.0,80,0.00,,,0.00,Wunderground v.1.15,2013-05-05 08:07:00,
2013-05-05 04:12:00,39.9,34.5,30.28,NNE,32,0.0,5.0,81,0.00,,,0.00,Wunderground v.1.15,2013-05-05 08:12:00,
2013-05-05 04:17:00,39.9,34.5,30.28,NNE,32,2.0,5.0,81,0.00,,,0.00,Wunderground v.1.15,2013-05-05 08:17:00,
2013-05-05 04:22:00,39.8,34.4,30.28,NNE,32,0.0,2.0,81,0.00,,,0.00,Wunderground v.1.15,2013-05-05 08:22:00,
2013-05-05 04:27:00,39.8,34.4,30.28,NNE,32,0.0,2.0,81,0.00,,,0.00,Wunderground v.1.15,2013-05-05 08:27:00,
2013-05-05 04:32:00,39.8,34.4,30.28,NNE,32,0.0,1.0,81,0.00,,,0.00,Wunderground v.1.15,2013-05-05 08:32:00,
2013-05-05 04:37:00,39.8,34.4,30.27,NNE,32,1.0,1.0,81,0.00,,,0.00,Wunderground v.1.15,2013-05-05 08:37:00,
2013-05-05 04:42:00,39.7,34.3,30.27,NNE,32,0.0,0.0,81,0.00,,,0.00,Wunderground v.1.15,2013-05-05 08:42:00,
2013-05-05 04:47:00,39.6,34.2,30.27,NNE,32,0.0,1.0,81,0.00,,,0.00,Wunderground v.1.15,2013-05-05 08:47:00,
2013-05-05 04:52:00,39.6,34.2,30.27,NNE,32,1.0,1.0,81,0.00,,,0.00,Wunderground v.1.15,2013-05-05 08:52:00,
2013-05-05 04:57:00,39.5,34.2,30.27,NNE,32,0.0,2.0,81,0.00,,,0.00,Wunderground v.1.15,2013-05-05 08:57:00,
2013-05-05 05:02:00,39.4,34.1,30.27,NNE,32,0.0,2.0,81,0.00,,,0.00,Wunderground v.1.15,2013-05-05 09:02:00,
2013-05-05 05:07:00,39.3,34.0,30.27,NNE,32,1.0,2.0,81,0.00,,,0.00,Wunderground v.1.15,2013-05-05 09:07:00,
2013-05-05 05:12:00,39.2,33.9,30.27,NNE,32,0.0,1.0,81,0.00,,,0.00,Wunderground v.1.15,2013-05-05 09:12:00,
2013-05-05 05:17:00,39.2,33.9,30.27,NNE,32,0.0,2.0,81,0.00,,,0.00,Wunderground v.1.15,2013-05-05 09:17:00,
2013-05-05 05:22:00,39.1,33.8,30.28,NNE,32,0.0,2.0,81,0.00,,,0.00,Wunderground v.1.15,2013-05-05 09:22:00,
2013-05-05 05:27:00,39.0,33.7,30.28,NNE,32,1.0,2.0,81,0.00,,,0.00,Wunderground v.1.15,2013-05-05 09:27:00,
2013-05-05 05:32:00,38.9,33.6,30.28,NNE,32,1.0,2.0,81,0.00,,,0.00,Wunderground v.1.15,2013-05-05 09:32:00,
2013-05-05 05:37:00,38.8,33.5,30.28,NNE,32,0.0,3.0,81,0.00,,,0.00,Wunderground v.1.15,2013-05-05 09:37:00,
2013-05-05 05:42:00,38.8,33.5,30.28,NNE,32,0.0,1.0,81,0.00,,,0.00,Wunderground v.1.15,2013-05-05 09:42:00,
2013-05-05 05:47:00,38.8,33.5,30.28,NNE,32,1.0,2.0,81,0.00,,,0.00,Wunderground v.1.15,2013-05-05 09:47:00,
2013-05-05 05:52:00,38.7,33.4,30.28,NNE,32,0.0,2.0,81,0.00,,,0.00,Wunderground v.1.15,2013-05-05 09:52:00,
2013-05-05 05:57:00,38.7,33.4,30.28,NNE,32,2.0,2.0,81,0.00,,,0.00,Wunderground v.1.15,2013-05-05 09:57:00,
2013-05-05 06:03:00,38.8,33.5,30.28,NNE,32,0.0,2.0,81,0.00,,,0.00,Wunderground v.1.15,2013-05-05 10:03:00,
2013-05-05 06:08:00,38.8,33.8,30.29,NNE,32,0.0,2.0,82,0.00,,,0.00,Wunderground v.1.15,2013-05-05 10:08:00,
2013-05-05 06:13:00,38.9,33.9,30.29,NNE,31,1.0,2.0,82,0.00,,,0.00,Wunderground v.1.15,2013-05-05 10:13:00,
2013-05-05 06:18:00,39.0,34.0,30.29,NNE,32,0.0,2.0,82,0.00,,,0.00,Wunderground v.1.15,2013-05-05 10:18:00,
2013-05-05 06:23:00,39.1,34.1,30.29,NNE,32,1.0,2.0,82,0.00,,,0.00,Wunderground v.1.15,2013-05-05 10:23:00,
2013-05-05 06:28:00,39.3,34.3,30.29,NNE,32,1.0,2.0,82,0.00,,,0.00,Wunderground v.1.15,2013-05-05 10:28:00,
2013-05-05 06:33:00,39.4,34.4,30.29,NNE,32,1.0,3.0,82,0.00,,,0.00,Wunderground v.1.15,2013-05-05 10:33:00,
2013-05-05 06:38:00,39.6,34.9,30.29,NW,315,0.0,5.0,83,0.00,,,0.00,Wunderground v.1.15,2013-05-05 10:38:00,
2013-05-05 06:43:00,39.7,35.0,30.29,NW,315,2.0,4.0,83,0.00,,,0.00,Wunderground v.1.15,2013-05-05 10:43:00,
2013-05-05 06:48:00,39.9,35.2,30.29,NW,315,1.0,4.0,83,0.00,,,0.00,Wunderground v.1.15,2013-05-05 10:48:00,
2013-05-05 06:53:00,40.2,35.4,30.29,NW,315,2.0,4.0,83,0.00,,,0.00,Wunderground v.1.15,2013-05-05 10:53:00,
2013-05-05 06:58:00,40.4,35.6,30.29,NW,315,1.0,4.0,83,0.00,,,0.00,Wunderground v.1.15,2013-05-05 10:58:00,
2013-05-05 07:03:00,40.7,35.9,30.29,NW,313,2.0,3.0,83,0.00,,,0.00,Wunderground v.1.15,2013-05-05 11:03:00,
2013-05-05 07:08:00,41.0,36.2,30.29,NW,315,4.0,4.0,83,0.00,,,0.00,Wunderground v.1.15,2013-05-05 11:08:00,
2013-05-05 07:13:00,41.3,36.5,30.29,NW,306,2.0,5.0,83,0.00,,,0.00,Wunderground v.1.15,2013-05-05 11:13:00,
2013-05-05 07:18:00,41.6,36.8,30.29,NW,306,1.0,5.0,83,0.00,,,0.00,Wunderground v.1.15,2013-05-05 11:18:00,
2013-05-05 07:23:00,42.0,37.2,30.29,NW,307,3.0,4.0,83,0.00,,,0.00,Wunderground v.1.15,2013-05-05 11:23:00,
2013-05-05 07:28:00,42.3,37.5,30.29,NW,307,1.0,4.0,83,0.00,,,0.00,Wunderground v.1.15,2013-05-05 11:28:00,
2013-05-05 07:33:00,42.7,37.9,30.29,NW,321,2.0,7.0,83,0.00,,,0.00,Wunderground v.1.15,2013-05-05 11:33:00,
2013-05-05 07:38:00,43.1,38.0,30.29,NW,321,1.0,7.0,82,0.00,,,0.00,Wunderground v.1.15,2013-05-05 11:38:00,
2013-05-05 07:43:00,43.5,38.4,30.30,NNE,15,4.0,6.0,82,0.00,,,0.00,Wunderground v.1.15,2013-05-05 11:43:00,
2013-05-05 07:48:00,43.9,38.4,30.30,NNW,337,5.0,6.0,81,0.00,,,0.00,Wunderground v.1.15,2013-05-05 11:48:00,
2013-05-05 07:53:00,44.3,38.5,30.30,NNW,342,0.0,5.0,80,0.00,,,0.00,Wunderground v.1.15,2013-05-05 11:53:00,
2013-05-05 07:58:00,44.9,39.1,30.30,ENE,60,5.0,7.0,80,0.00,,,0.00,Wunderground v.1.15,2013-05-05 11:58:00,
2013-05-05 08:03:00,45.3,39.2,30.30,NE,48,7.0,7.0,79,0.00,,,0.00,Wunderground v.1.15,2013-05-05 12:03:00,
2013-05-05 08:08:00,45.9,39.4,30.30,NE,49,2.0,8.0,78,0.00,,,0.00,Wunderground v.1.15,2013-05-05 12:08:00,
2013-05-05 08:13:00,46.3,39.1,30.30,NNE,32,4.0,6.0,76,0.00,,,0.00,Wunderground v.1.15,2013-05-05 12:13:00,
2013-05-05 08:18:00,46.7,39.2,30.30,NE,38,5.0,8.0,75,0.00,,,0.00,Wunderground v.1.15,2013-05-05 12:18:00,
2013-05-05 08:23:00,47.1,39.2,30.29,NW,310,4.0,5.0,74,0.00,,,0.00,Wunderground v.1.15,2013-05-05 12:23:00,
2013-05-05 08:28:00,47.6,39.7,30.30,North,360,5.0,6.0,74,0.00,,,0.00,Wunderground v.1.15,2013-05-05 12:28:00,
2013-05-05 08:33:00,48.0,40.1,30.30,NE,49,3.0,5.0,74,0.00,,,0.00,Wunderground v.1.15,2013-05-05 12:33:00,
2013-05-05 08:38:00,48.3,39.7,30.30,NE,37,4.0,5.0,72,0.00,,,0.00,Wunderground v.1.15,2013-05-05 12:38:00,
2013-05-05 08:43:00,48.6,40.0,30.30,ENE,63,5.0,6.0,72,0.00,,,0.00,Wunderground v.1.15,2013-05-05 12:43:00,
2013-05-05 08:48:00,49.0,40.0,30.30,NE,44,4.0,7.0,71,0.00,,,0.00,Wunderground v.1.15,2013-05-05 12:48:00,
2013-05-05 08:53:00,49.4,40.0,30.30,ENE,65,3.0,6.0,70,0.00,,,0.00,Wunderground v.1.15,2013-05-05 12:53:00,
2013-05-05 08:58:00,49.8,40.4,30.30,East,94,5.0,6.0,70,0.00,,,0.00,Wunderground v.1.15,2013-05-05 12:58:00,
2013-05-05 09:03:00,50.3,40.5,30.30,East,96,0.0,3.0,69,0.00,,,0.00,Wunderground v.1.15,2013-05-05 13:03:00,
2013-05-05 09:08:00,50.6,40.4,30.30,ENE,66,5.0,8.0,68,0.00,,,0.00,Wunderground v.1.15,2013-05-05 13:08:00,
2013-05-05 09:13:00,51.0,40.4,30.29,ESE,121,1.0,3.0,67,0.00,,,0.00,Wunderground v.1.15,2013-05-05 13:13:00,
2013-05-05 09:18:00,51.5,40.9,30.29,ESE,104,3.0,4.0,67,0.00,,,0.00,Wunderground v.1.15,2013-05-05 13:18:00,
2013-05-05 09:23:00,52.1,40.7,30.29,ESE,103,8.0,10.0,65,0.00,,,0.00,Wunderground v.1.15,2013-05-05 13:23:00,
2013-05-05 09:28:00,52.9,41.0,30.29,SE,126,10.0,10.0,64,0.00,,,0.00,Wunderground v.1.15,2013-05-05 13:28:00,
2013-05-05 09:33:00,53.6,40.9,30.29,SE,130,6.0,12.0,62,0.00,,,0.00,Wunderground v.1.15,2013-05-05 13:33:00,
2013-05-05 09:38:00,54.1,40.5,30.29,SE,137,3.0,12.0,60,0.00,,,0.00,Wunderground v.1.15,2013-05-05 13:38:00,
2013-05-05 09:43:00,54.5,41.3,30.29,ESE,109,5.0,8.0,61,0.00,,,0.00,Wunderground v.1.15,2013-05-05 13:43:00,
2013-05-05 09:48:00,54.9,39.5,30.29,SSE,147,5.0,8.0,56,0.00,,,0.00,Wunderground v.1.15,2013-05-05 13:48:00,
2013-05-05 09:53:00,55.4,40.4,30.29,ESE,123,12.0,12.0,57,0.00,,,0.00,Wunderground v.1.15,2013-05-05 13:53:00,
2013-05-05 09:58:00,56.0,40.1,30.29,ENE,68,8.0,12.0,55,0.00,,,0.00,Wunderground v.1.15,2013-05-05 13:58:00,
2013-05-05 10:03:00,56.0,39.6,30.29,ENE,78,4.0,11.0,54,0.00,,,0.00,Wunderground v.1.15,2013-05-05 14:03:00,
2013-05-05 10:08:00,56.2,40.7,30.29,East,96,6.0,11.0,56,0.00,,,0.00,Wunderground v.1.15,2013-05-05 14:08:00,
2013-05-05 10:13:00,56.4,40.9,30.29,ENE,66,5.0,10.0,56,0.00,,,0.00,Wunderground v.1.15,2013-05-05 14:13:00,
2013-05-05 10:18:00,56.7,40.2,30.29,East,98,6.0,13.0,54,0.00,,,0.00,Wunderground v.1.15,2013-05-05 14:18:00,
2013-05-05 10:23:00,57.2,40.2,30.29,ENE,78,0.0,11.0,53,0.00,,,0.00,Wunderground v.1.15,2013-05-05 14:23:00,
2013-05-05 10:28:00,57.5,40.0,30.29,East,92,7.0,11.0,52,0.00,,,0.00,Wunderground v.1.15,2013-05-05 14:28:00,
2013-05-05 10:33:00,57.6,39.6,30.29,SE,133,6.0,16.0,51,0.00,,,0.00,Wunderground v.1.15,2013-05-05 14:33:00,
2013-05-05 10:38:00,58.1,40.1,30.29,ESE,122,3.0,16.0,51,0.00,,,0.00,Wunderground v.1.15,2013-05-05 14:38:00,
2013-05-05 10:43:00,58.5,40.4,30.29,ENE,60,3.0,10.0,51,0.00,,,0.00,Wunderground v.1.15,2013-05-05 14:43:00,
2013-05-05 10:48:00,58.6,40.0,30.29,SE,126,6.0,12.0,50,0.00,,,0.00,Wunderground v.1.15,2013-05-05 14:48:00,
2013-05-05 10:53:00,59.0,39.9,30.29,SE,125,10.0,14.0,49,0.00,,,0.00,Wunderground v.1.15,2013-05-05 14:53:00,
2013-05-05 10:58:00,59.0,39.3,30.29,ESE,121,10.0,14.0,48,0.00,,,0.00,Wunderground v.1.15,2013-05-05 14:58:00,
2013-05-05 11:03:00,59.2,40.0,30.29,ESE,104,2.0,14.0,49,0.00,,,0.00,Wunderground v.1.15,2013-05-05 15:03:00,
2013-05-05 11:08:00,59.2,39.5,30.29,East,94,8.0,14.0,48,0.00,,,0.00,Wunderground v.1.15,2013-05-05 15:08:00,
2013-05-05 11:13:00,59.1,38.3,30.29,ESE,115,7.0,11.0,46,0.00,,,0.00,Wunderground v.1.15,2013-05-05 15:13:00,
2013-05-05 11:18:00,59.0,39.9,30.29,East,83,5.0,11.0,49,0.00,,,0.00,Wunderground v.1.15,2013-05-05 15:18:00,
2013-05-05 11:23:00,58.6,39.0,30.29,SE,142,7.0,11.0,48,0.00,,,0.00,Wunderground v.1.15,2013-05-05 15:23:00,
2013-05-05 11:28:00,58.5,38.9,30.29,SE,128,11.0,11.0,48,0.00,,,0.00,Wunderground v.1.15,2013-05-05 15:28:00,
2013-05-05 11:33:00,58.4,38.8,30.28,ESE,119,8.0,12.0,48,0.00,,,0.00,Wunderground v.1.15,2013-05-05 15:33:00,
2013-05-05 11:38:00,58.3,38.7,30.28,ESE,116,10.0,12.0,48,0.00,,,0.00,Wunderground v.1.15,2013-05-05 15:38:00,
2013-05-05 11:43:00,58.1,38.5,30.28,East,86,3.0,13.0,48,0.00,,,0.00,Wunderground v.1.15,2013-05-05 15:43:00,
2013-05-05 11:48:00,57.9,38.8,30.28,ESE,113,3.0,14.0,49,0.00,,,0.00,Wunderground v.1.15,2013-05-05 15:48:00,
2013-05-05 11:53:00,57.8,38.2,30.28,SE,137,11.0,14.0,48,0.00,,,0.00,Wunderground v.1.15,2013-05-05 15:53:00,
2013-05-05 11:58:00,58.0,38.9,30.28,ESE,103,14.0,15.0,49,0.00,,,0.00,Wunderground v.1.15,2013-05-05 15:58:00,
2013-05-05 12:03:00,58.1,38.5,30.28,ESE,102,10.0,15.0,48,0.00,,,0.00,Wunderground v.1.15,2013-05-05 16:03:00,
2013-05-05 12:08:00,58.2,39.1,30.28,ESE,103,13.0,15.0,49,0.00,,,0.00,Wunderground v.1.15,2013-05-05 16:08:00,
2013-05-05 12:13:00,58.4,38.8,30.28,SE,137,9.0,14.0,48,0.00,,,0.00,Wunderground v.1.15,2013-05-05 16:13:00,
2013-05-05 12:18:00,58.4,38.2,30.28,SE,130,9.0,16.0,47,0.00,,,0.00,Wunderground v.1.15,2013-05-05 16:18:00,
2013-05-05 12:23:00,58.4,38.8,30.28,SE,143,8.0,12.0,48,0.00,,,0.00,Wunderground v.1.15,2013-05-05 16:23:00,
2013-05-05 12:29:00,58.7,39.0,30.28,ESE,117,11.0,13.0,48,0.00,,,0.00,Wunderground v.1.15,2013-05-05 16:29:00,
2013-05-05 12:34:00,59.0,38.8,30.28,SE,132,9.0,13.0,47,0.00,,,0.00,Wunderground v.1.15,2013-05-05 16:34:00,
2013-05-05 12:39:00,59.0,38.2,30.28,SE,129,6.0,13.0,46,0.00,,,0.00,Wunderground v.1.15,2013-05-05 16:39:00,
2013-05-05 12:44:00,59.0,38.8,30.28,ESE,107,14.0,15.0,47,0.00,,,0.00,Wunderground v.1.15,2013-05-05 16:44:00,
2013-05-05 12:49:00,59.0,38.8,30.28,SE,131,7.0,15.0,47,0.00,,,0.00,Wunderground v.1.15,2013-05-05 16:49:00,
2013-05-05 12:54:00,59.1,38.3,30.28,ESE,107,10.0,13.0,46,0.00,,,0.00,Wunderground v.1.15,2013-05-05 16:54:00,
2013-05-05 12:59:00,59.3,38.5,30.28,SE,140,8.0,13.0,46,0.00,,,0.00,Wunderground v.1.15,2013-05-05 16:59:00,
2013-05-05 13:04:00,59.2,38.4,30.28,SE,146,6.0,14.0,46,0.00,,,0.00,Wunderground v.1.15,2013-05-05 17:04:00,
2013-05-05 13:09:00,59.0,38.8,30.28,ESE,121,5.0,15.0,47,0.00,,,0.00,Wunderground v.1.15,2013-05-05 17:09:00,
2013-05-05 13:14:00,59.0,39.3,30.28,ESE,114,8.0,15.0,48,0.00,,,0.00,Wunderground v.1.15,2013-05-05 17:14:00,
2013-05-05 13:19:00,59.0,39.3,30.28,ESE,119,12.0,15.0,48,0.00,,,0.00,Wunderground v.1.15,2013-05-05 17:19:00,
2013-05-05 13:24:00,59.3,39.1,30.27,East,92,8.0,14.0,47,0.00,,,0.00,Wunderground v.1.15,2013-05-05 17:24:00,
2013-05-05 13:29:00,59.4,39.1,30.27,East,88,10.0,14.0,47,0.00,,,0.00,Wunderground v.1.15,2013-05-05 17:29:00,
2013-05-05 13:34:00,59.4,39.1,30.28,ESE,122,12.0,13.0,47,0.00,,,0.00,Wunderground v.1.15,2013-05-05 17:34:00,
2013-05-05 13:39:00,59.4,39.1,30.27,SE,126,10.0,13.0,47,0.00,,,0.00,Wunderground v.1.15,2013-05-05 17:39:00,
2013-05-05 13:44:00,59.4,39.7,30.28,East,98,8.0,12.0,48,0.00,,,0.00,Wunderground v.1.15,2013-05-05 17:44:00,
2013-05-05 13:49:00,59.4,39.7,30.28,ESE,121,11.0,14.0,48,0.00,,,0.00,Wunderground v.1.15,2013-05-05 17:49:00,
2013-05-05 13:54:00,59.5,39.2,30.27,East,99,10.0,14.0,47,0.00,,,0.00,Wunderground v.1.15,2013-05-05 17:54:00,
2013-05-05 13:59:00,59.5,39.2,30.27,ESE,118,10.0,14.0,47,0.00,,,0.00,Wunderground v.1.15,2013-05-05 17:59:00,
2013-05-05 14:04:00,59.6,39.3,30.28,East,87,6.0,15.0,47,0.00,,,0.00,Wunderground v.1.15,2013-05-05 18:04:00,
2013-05-05 14:09:00,59.6,39.9,30.27,SSE,155,7.0,15.0,48,0.00,,,0.00,Wunderground v.1.15,2013-05-05 18:09:00,
2013-05-05 14:14:00,59.7,39.4,30.27,SE,136,10.0,13.0,47,0.00,,,0.00,Wunderground v.1.15,2013-05-05 18:14:00,
2013-05-05 14:19:00,59.8,40.1,30.27,SE,124,7.0,16.0,48,0.00,,,0.00,Wunderground v.1.15,2013-05-05 18:19:00,
2013-05-05 14:24:00,60.0,39.1,30.27,SE,136,7.0,14.0,46,0.00,,,0.00,Wunderground v.1.15,2013-05-05 18:24:00,
2013-05-05 14:29:00,60.0,39.7,30.27,SE,128,8.0,16.0,47,0.00,,,0.00,Wunderground v.1.15,2013-05-05 18:29:00,
2013-05-05 14:34:00,60.0,39.1,30.27,SSE,157,7.0,14.0,46,0.00,,,0.00,Wunderground v.1.15,2013-05-05 18:34:00,
2013-05-05 14:39:00,59.8,39.5,30.27,ESE,111,7.0,15.0,47,0.00,,,0.00,Wunderground v.1.15,2013-05-05 18:39:00,
2013-05-05 14:44:00,59.7,39.4,30.26,ESE,117,10.0,15.0,47,0.00,,,0.00,Wunderground v.1.15,2013-05-05 18:44:00,
2013-05-05 14:49:00,59.5,39.2,30.26,ESE,107,15.0,15.0,47,0.00,,,0.00,Wunderground v.1.15,2013-05-05 18:49:00,
2013-05-05 14:54:00,59.2,39.5,30.26,ESE,109,16.0,18.0,48,0.00,,,0.00,Wunderground v.1.15,2013-05-05 18:54:00,
2013-05-05 14:59:00,59.0,39.3,30.26,East,92,13.0,18.0,48,0.00,,,0.00,Wunderground v.1.15,2013-05-05 18:59:00,
2013-05-05 15:04:00,59.0,38.8,30.26,ENE,77,5.0,14.0,47,0.00,,,0.00,Wunderground v.1.15,2013-05-05 19:04:00,
2013-05-05 15:09:00,58.8,39.1,30.26,SSE,161,9.0,16.0,48,0.00,,,0.00,Wunderground v.1.15,2013-05-05 19:09:00,
2013-05-05 15:14:00,58.6,39.0,30.26,SSE,153,9.0,15.0,48,0.00,,,0.00,Wunderground v.1.15,2013-05-05 19:14:00,
2013-05-05 15:19:00,58.5,38.3,30.26,SE,129,10.0,15.0,47,0.00,,,0.00,Wunderground v.1.15,2013-05-05 19:19:00,
2013-05-05 15:24:00,58.2,38.6,30.25,ESE,106,7.0,14.0,48,0.00,,,0.00,Wunderground v.1.15,2013-05-05 19:24:00,
2013-05-05 15:30:00,58.2,39.1,30.25,East,90,9.0,9.0,49,0.00,,,0.00,Wunderground v.1.15,2013-05-05 19:30:00,
2013-05-05 15:35:00,58.0,38.9,30.25,SE,135,8.0,11.0,49,0.00,,,0.00,Wunderground v.1.15,2013-05-05 19:35:00,
2013-05-05 15:40:00,57.9,38.8,30.25,ESE,119,8.0,13.0,49,0.00,,,0.00,Wunderground v.1.15,2013-05-05 19:40:00,
2013-05-05 15:45:00,57.8,38.8,30.25,East,85,8.0,13.0,49,0.00,,,0.00,Wunderground v.1.15,2013-05-05 19:45:00,
2013-05-05 15:50:00,57.6,39.1,30.25,ESE,103,8.0,9.0,50,0.00,,,0.00,Wunderground v.1.15,2013-05-05 19:50:00,
2013-05-05 15:55:00,57.5,38.5,30.25,ENE,77,12.0,12.0,49,0.00,,,0.00,Wunderground v.1.15,2013-05-05 19:55:00,
2013-05-05 16:00:00,57.4,38.4,30.25,ESE,121,13.0,13.0,49,0.00,,,0.00,Wunderground v.1.15,2013-05-05 20:00:00,
2013-05-05 16:05:00,57.5,39.0,30.25,ESE,114,8.0,15.0,50,0.00,,,0.00,Wunderground v.1.15,2013-05-05 20:05:00,
2013-05-05 16:10:00,57.5,38.5,30.24,ENE,77,5.0,12.0,49,0.00,,,0.00,Wunderground v.1.15,2013-05-05 20:10:00,
2013-05-05 16:15:00,57.4,38.4,30.24,SE,125,11.0,14.0,49,0.00,,,0.00,Wunderground v.1.15,2013-05-05 20:15:00,
2013-05-05 16:20:00,57.3,38.8,30.24,ESE,105,7.0,10.0,50,0.00,,,0.00,Wunderground v.1.15,2013-05-05 20:20:00,
2013-05-05 16:25:00,57.1,38.6,30.24,ESE,107,10.0,17.0,50,0.00,,,0.00,Wunderground v.1.15,2013-05-05 20:25:00,
2013-05-05 16:30:00,57.0,39.0,30.24,ESE,105,8.0,11.0,51,0.00,,,0.00,Wunderground v.1.15,2013-05-05 20:30:00,
2013-05-05 16:35:00,56.9,38.4,30.24,ESE,121,8.0,16.0,50,0.00,,,0.00,Wunderground v.1.15,2013-05-05 20:35:00,
2013-05-05 16:40:00,56.8,38.3,30.24,ESE,110,15.0,17.0,50,0.00,,,0.00,Wunderground v.1.15,2013-05-05 20:40:00,
2013-05-05 16:46:00,56.7,38.3,30.24,ESE,109,10.0,17.0,50,0.00,,,0.00,Wunderground v.1.15,2013-05-05 20:46:00,
2013-05-05 16:51:00,56.6,38.7,30.24,ESE,117,10.0,13.0,51,0.00,,,0.00,Wunderground v.1.15,2013-05-05 20:51:00,
2013-05-05 16:56:00,56.4,38.5,30.24,ESE,113,7.0,14.0,51,0.00,,,0.00,Wunderground v.1.15,2013-05-05 20:56:00,
2013-05-05 17:01:00,56.3,38.4,30.24,ESE,119,15.0,15.0,51,0.00,,,0.00,Wunderground v.1.15,2013-05-05 21:01:00,
2013-05-05 17:06:00,56.3,38.4,30.24,ESE,120,12.0,15.0,51,0.00,,,0.00,Wunderground v.1.15,2013-05-05 21:06:00,
2013-05-05 17:11:00,56.2,38.8,30.24,SE,126,7.0,13.0,52,0.00,,,0.00,Wunderground v.1.15,2013-05-05 21:11:00,
2013-05-05 17:16:00,56.2,38.8,30.24,East,89,10.0,15.0,52,0.00,,,0.00,Wunderground v.1.15,2013-05-05 21:16:00,
2013-05-05 17:21:00,56.0,38.6,30.24,ESE,105,10.0,14.0,52,0.00,,,0.00,Wunderground v.1.15,2013-05-05 21:21:00,
2013-05-05 17:26:00,55.9,38.5,30.24,ESE,116,10.0,14.0,52,0.00,,,0.00,Wunderground v.1.15,2013-05-05 21:26:00,
2013-05-05 17:31:00,55.8,38.4,30.24,East,88,10.0,11.0,52,0.00,,,0.00,Wunderground v.1.15,2013-05-05 21:31:00,
2013-05-05 17:36:00,55.6,38.7,30.24,East,80,11.0,14.0,53,0.00,,,0.00,Wunderground v.1.15,2013-05-05 21:36:00,
2013-05-05 17:41:00,55.4,38.5,30.23,ESE,107,5.0,11.0,53,0.00,,,0.00,Wunderground v.1.15,2013-05-05 21:41:00,
2013-05-05 17:46:00,55.2,38.8,30.24,East,80,9.0,13.0,54,0.00,,,0.00,Wunderground v.1.15,2013-05-05 21:46:00,
2013-05-05 17:51:00,55.2,38.8,30.24,East,98,6.0,12.0,54,0.00,,,0.00,Wunderground v.1.15,2013-05-05 21:51:00,
2013-05-05 17:56:00,55.2,38.4,30.24,SE,125,6.0,14.0,53,0.00,,,0.00,Wunderground v.1.15,2013-05-05 21:56:00,
2013-05-05 18:01:00,55.0,38.6,30.24,ESE,113,9.0,13.0,54,0.00,,,0.00,Wunderground v.1.15,2013-05-05 22:01:00,
2013-05-05 18:06:00,54.8,38.5,30.24,ESE,105,10.0,14.0,54,0.00,,,0.00,Wunderground v.1.15,2013-05-05 22:06:00,
2013-05-05 18:11:00,54.5,38.2,30.23,ESE,115,5.0,11.0,54,0.00,,,0.00,Wunderground v.1.15,2013-05-05 22:11:00,
2013-05-05 18:16:00,54.2,38.4,30.23,ESE,110,11.0,13.0,55,0.00,,,0.00,Wunderground v.1.15,2013-05-05 22:16:00,
2013-05-05 18:21:00,54.0,38.6,30.23,ESE,107,8.0,12.0,56,0.00,,,0.00,Wunderground v.1.15,2013-05-05 22:21:00,
2013-05-05 18:26:00,53.9,38.6,30.23,ESE,115,10.0,12.0,56,0.00,,,0.00,Wunderground v.1.15,2013-05-05 22:26:00,
2013-05-05 18:31:00,53.7,38.8,30.24,SE,133,4.0,10.0,57,0.00,,,0.00,Wunderground v.1.15,2013-05-05 22:31:00,
2013-05-05 18:36:00,53.6,38.7,30.24,ESE,107,9.0,15.0,57,0.00,,,0.00,Wunderground v.1.15,2013-05-05 22:36:00,
2013-05-05 18:41:00,53.4,38.5,30.23,East,94,10.0,10.0,57,0.00,,,0.00,Wunderground v.1.15,2013-05-05 22:41:00,
2013-05-05 18:46:00,53.3,38.4,30.23,ESE,119,8.0,16.0,57,0.00,,,0.00,Wunderground v.1.15,2013-05-05 22:46:00,
2013-05-05 18:51:00,53.2,38.8,30.24,ESE,108,10.0,11.0,58,0.00,,,0.00,Wunderground v.1.15,2013-05-05 22:51:00,
2013-05-05 18:56:00,53.2,38.8,30.24,East,86,7.0,11.0,58,0.00,,,0.00,Wunderground v.1.15,2013-05-05 22:56:00,
2013-05-05 19:01:00,53.1,38.3,30.24,ESE,105,10.0,10.0,57,0.00,,,0.00,Wunderground v.1.15,2013-05-05 23:01:00,
2013-05-05 19:06:00,53.0,38.6,30.24,SE,140,6.0,10.0,58,0.00,,,0.00,Wunderground v.1.15,2013-05-05 23:06:00,
2013-05-05 19:11:00,52.9,39.0,30.24,ESE,105,10.0,10.0,59,0.00,,,0.00,Wunderground v.1.15,2013-05-05 23:11:00,
2013-05-05 19:16:00,52.7,38.8,30.24,ESE,103,4.0,13.0,59,0.00,,,0.00,Wunderground v.1.15,2013-05-05 23:16:00,
2013-05-05 19:21:00,52.6,38.7,30.24,ESE,111,5.0,11.0,59,0.00,,,0.00,Wunderground v.1.15,2013-05-05 23:21:00,
2013-05-05 19:26:00,52.4,38.9,30.24,ESE,115,11.0,11.0,60,0.00,,,0.00,Wunderground v.1.15,2013-05-05 23:26:00,
2013-05-05 19:31:00,52.2,38.7,30.24,ESE,108,10.0,11.0,60,0.00,,,0.00,Wunderground v.1.15,2013-05-05 23:31:00,
2013-05-05 19:36:00,52.0,39.0,30.24,ESE,102,5.0,11.0,61,0.00,,,0.00,Wunderground v.1.15,2013-05-05 23:36:00,
2013-05-05 19:41:00,51.9,38.9,30.24,ESE,104,7.0,9.0,61,0.00,,,0.00,Wunderground v.1.15,2013-05-05 23:41:00,
2013-05-05 19:46:00,51.7,39.1,30.24,ESE,108,2.0,12.0,62,0.00,,,0.00,Wunderground v.1.15,2013-05-05 23:46:00,
2013-05-05 19:51:00,51.6,39.0,30.24,East,97,7.0,9.0,62,0.00,,,0.00,Wunderground v.1.15,2013-05-05 23:51:00,
2013-05-05 19:56:00,51.5,38.9,30.24,ESE,121,9.0,10.0,62,0.00,,,0.00,Wunderground v.1.15,2013-05-05 23:56:00,
2013-05-05 20:02:00,51.3,39.1,30.24,ESE,115,4.0,10.0,63,0.00,,,0.00,Wunderground v.1.15,2013-05-06 00:02:00,
2013-05-05 20:07:00,51.2,39.4,30.24,SE,130,3.0,10.0,64,0.00,,,0.00,Wunderground v.1.15,2013-05-06 00:07:00,
2013-05-05 20:12:00,51.1,39.7,30.24,ESE,121,3.0,5.0,65,0.00,,,0.00,Wunderground v.1.15,2013-05-06 00:12:00,
2013-05-05 20:17:00,51.0,40.0,30.24,SE,131,3.0,7.0,66,0.00,,,0.00,Wunderground v.1.15,2013-05-06 00:17:00,
2013-05-05 20:22:00,50.9,39.9,30.24,SE,126,3.0,8.0,66,0.00,,,0.00,Wunderground v.1.15,2013-05-06 00:22:00,
2013-05-05 20:27:00,50.7,40.1,30.24,ESE,108,3.0,9.0,67,0.00,,,0.00,Wunderground v.1.15,2013-05-06 00:27:00,
2013-05-05 20:32:00,50.6,40.0,30.24,ESE,105,9.0,11.0,67,0.00,,,0.00,Wunderground v.1.15,2013-05-06 00:32:00,
2013-05-05 20:37:00,50.6,40.4,30.24,SE,132,7.0,11.0,68,0.00,,,0.00,Wunderground v.1.15,2013-05-06 00:37:00,
2013-05-05 20:42:00,50.5,40.3,30.24,ESE,119,4.0,8.0,68,0.00,,,0.00,Wunderground v.1.15,2013-05-06 00:42:00,
2013-05-05 20:47:00,50.5,40.7,30.24,ESE,111,3.0,8.0,69,0.00,,,0.00,Wunderground v.1.15,2013-05-06 00:47:00,
2013-05-05 20:52:00,50.4,40.6,30.24,ESE,121,4.0,7.0,69,0.00,,,0.00,Wunderground v.1.15,2013-05-06 00:52:00,
2013-05-05 20:57:00,50.3,40.5,30.25,ESE,116,4.0,7.0,69,0.00,,,0.00,Wunderground v.1.15,2013-05-06 00:57:00,
2013-05-05 21:02:00,50.3,40.9,30.25,ESE,122,3.0,6.0,70,0.00,,,0.00,Wunderground v.1.15,2013-05-06 01:02:00,
2013-05-05 21:07:00,50.3,40.9,30.25,ESE,122,3.0,6.0,70,0.00,,,0.00,Wunderground v.1.15,2013-05-06 01:07:00,
2013-05-05 21:12:00,50.2,40.8,30.25,SE,126,4.0,5.0,70,0.00,,,0.00,Wunderground v.1.15,2013-05-06 01:12:00,
2013-05-05 21:17:00,50.2,40.8,30.25,ESE,121,3.0,8.0,70,0.00,,,0.00,Wunderground v.1.15,2013-05-06 01:17:00,
2013-05-05 21:22:00,50.2,40.8,30.25,SE,138,5.0,8.0,70,0.00,,,0.00,Wunderground v.1.15,2013-05-06 01:22:00,
2013-05-05 21:27:00,50.1,41.1,30.25,ESE,107,5.0,9.0,71,0.00,,,0.00,Wunderground v.1.15,2013-05-06 01:27:00,
2013-05-05 21:32:00,50.1,41.1,30.25,SE,130,5.0,7.0,71,0.00,,,0.00,Wunderground v.1.15,2013-05-06 01:32:00,
2013-05-05 21:37:00,50.0,41.0,30.25,ESE,118,4.0,8.0,71,0.00,,,0.00,Wunderground v.1.15,2013-05-06 01:37:00,
2013-05-05 21:42:00,49.9,41.2,30.25,SE,126,5.0,9.0,72,0.00,,,0.00,Wunderground v.1.15,2013-05-06 01:42:00,
2013-05-05 21:47:00,49.9,40.9,30.25,SE,126,3.0,9.0,71,0.00,,,0.00,Wunderground v.1.15,2013-05-06 01:47:00,
2013-05-05 21:52:00,49.8,40.8,30.25,SE,141,5.0,9.0,71,0.00,,,0.00,Wunderground v.1.15,2013-05-06 01:52:00,
2013-05-05 21:57:00,49.8,40.8,30.25,SE,132,4.0,9.0,71,0.00,,,0.00,Wunderground v.1.15,2013-05-06 01:57:00,
2013-05-05 22:02:00,49.7,41.0,30.25,SE,134,6.0,9.0,72,0.00,,,0.00,Wunderground v.1.15,2013-05-06 02:02:00,
2013-05-05 22:07:00,49.6,40.9,30.25,SE,144,4.0,9.0,72,0.00,,,0.00,Wunderground v.1.15,2013-05-06 02:07:00,
2013-05-05 22:12:00,49.6,40.9,30.25,SSE,147,8.0,8.0,72,0.00,,,0.00,Wunderground v.1.15,2013-05-06 02:12:00,
2013-05-05 22:17:00,49.6,41.3,30.24,SE,137,5.0,8.0,73,0.00,,,0.00,Wunderground v.1.15,2013-05-06 02:17:00,
2013-05-05 22:22:00,49.5,41.2,30.25,SE,142,2.0,5.0,73,0.00,,,0.00,Wunderground v.1.15,2013-05-06 02:22:00,
2013-05-05 22:27:00,49.5,41.2,30.25,SE,132,5.0,7.0,73,0.00,,,0.00,Wunderground v.1.15,2013-05-06 02:27:00,
2013-05-05 22:32:00,49.5,41.2,30.25,SE,126,2.0,5.0,73,0.00,,,0.00,Wunderground v.1.15,2013-05-06 02:32:00,
2013-05-05 22:37:00,49.4,41.1,30.25,SE,137,4.0,6.0,73,0.00,,,0.00,Wunderground v.1.15,2013-05-06 02:37:00,
2013-05-05 22:42:00,49.4,41.5,30.25,SE,138,3.0,4.0,74,0.00,,,0.00,Wunderground v.1.15,2013-05-06 02:42:00,
2013-05-05 22:47:00,49.4,41.5,30.25,SE,131,4.0,5.0,74,0.00,,,0.00,Wunderground v.1.15,2013-05-06 02:47:00,
2013-05-05 22:52:00,49.4,41.5,30.25,SE,128,2.0,4.0,74,0.00,,,0.00,Wunderground v.1.15,2013-05-06 02:52:00,
2013-05-05 22:57:00,49.4,41.5,30.25,SE,138,1.0,6.0,74,0.00,,,0.00,Wunderground v.1.15,2013-05-06 02:57:00,
2013-05-05 23:02:00,49.3,41.4,30.24,SE,138,4.0,4.0,74,0.00,,,0.00,Wunderground v.1.15,2013-05-06 03:02:00,
2013-05-05 23:07:00,49.2,41.3,30.24,SE,138,2.0,4.0,74,0.00,,,0.00,Wunderground v.1.15,2013-05-06 03:07:00,
2013-05-05 23:12:00,49.1,41.2,30.24,SE,139,1.0,4.0,74,0.00,,,0.00,Wunderground v.1.15,2013-05-06 03:12:00,
2013-05-05 23:17:00,49.0,41.1,30.24,SE,138,0.0,4.0,74,0.00,,,0.00,Wunderground v.1.15,2013-05-06 03:17:00,
2013-05-05 23:22:00,48.9,41.0,30.24,SE,139,0.0,3.0,74,0.00,,,0.00,Wunderground v.1.15,2013-05-06 03:22:00,
2013-05-05 23:27:00,48.7,40.8,30.24,SE,139,0.0,3.0,74,0.00,,,0.00,Wunderground v.1.15,2013-05-06 03:27:00,
2013-05-05 23:32:00,48.6,40.7,30.24,SE,139,0.0,1.0,74,0.00,,,0.00,Wunderground v.1.15,2013-05-06 03:32:00,
2013-05-05 23:37:00,48.4,40.5,30.24,SE,139,0.0,1.0,74,0.00,,,0.00,Wunderground v.1.15,2013-05-06 03:37:00,
2013-05-05 23:42:00,48.3,40.4,30.24,SE,139,2.0,2.0,74,0.00,,,0.00,Wunderground v.1.15,2013-05-06 03:42:00,
2013-05-05 23:47:00,48.1,40.2,30.24,SE,139,2.0,3.0,74,0.00,,,0.00,Wunderground v.1.15,2013-05-06 03:47:00,
2013-05-05 23:52:00,47.9,40.0,30.24,SE,140,1.0,3.0,74,0.00,,,0.00,Wunderground v.1.15,2013-05-06 03:52:00,
2013-05-05 23:57:00,47.7,39.8,30.24,SE,140,0.0,3.0,74,0.00,,,0.00,Wunderground v.1.15,2013-05-06 03:57:00,